Moab, UT

9:23 PM MDT on October 22, 2019 (GMT -0600)
Canyonlands

Weather History for KCNY - September, 2019

Change the Weather History Date:

Monday, September 23, 2019

  Actual Average Record
Temperature  
Mean Temperature 69 °F 64 °F  
Max Temperature 82 °F 79 °F 99 °F (1935)
Min Temperature 55 °F 49 °F 35 °F (2006)
Degree Days  
Heating Degree Days 0 3  
Month to date heating degree days 20 28  
Since 1 July heating degree days 20 29  
Cooling Degree Days 4 2  
Month to date cooling degree days 189 109  
Year to date cooling degree days 1444 1275  
Growing Degree Days 18 (Base 50)    
Moisture  
Dew Point 24 °F    
Average Humidity 26    
Maximum Humidity 42    
Minimum Humidity 10    
Precipitation  
Precipitation 0.00 in 0.03 in 1.29 in (1931)
Month to date precipitation 0.02 0.74  
Year to date precipitation 6.19 6.12  
Sea Level Pressure  
Sea Level Pressure 29.95 in    
Wind  
Wind Speed 6 mph (SE)    
Max Wind Speed 18 mph    
Max Gust Speed 24 mph    
Visibility 10 miles    
Events      
T = Trace of Precipitation, MM = Missing Value Source: NWS Daily Summary

Daily Weather History Graph

Daily Weather History Graph

Search for Another Location

Airport or City:

Astronomy

Sep. 23, 2019 Rise Set
Actual Time 7:07 AM MDT 7:14 PM MDT
Civil Twilight 6:40 AM MDT 7:41 PM MDT
Nautical Twilight 6:09 AM MDT 8:12 PM MDT
Astronomical Twilight 5:38 AM MDT 8:43 PM MDT
Moon 12:57 AM MDT 4:07 PM MDT
Length of Visible Light 13h 00m
Length of Day
12h 07m
Waning Crescent, 32% of the Moon is Illuminated
Sep 23
Waning Crescent
Sep 28
New
Oct 5
First Quarter
Oct 13
Full
Oct 21
Last Quarter

Hourly Weather History & Observations

Time (MDT) Temp. Dew Point Humidity Pressure Visibility Wind Dir Wind Speed Gust Speed Precip Events Conditions
12:53 AM 63.0 °F 19.0 °F 18% 29.93 in 10.0 mi ESE 3.5 mph - N/A   Clear
1:53 AM 57.9 °F 18.0 °F 21% 29.94 in 10.0 mi SSW 3.5 mph - N/A   Clear
2:53 AM 57.0 °F 19.0 °F 23% 29.94 in 10.0 mi SSE 4.6 mph - N/A   Clear
3:53 AM 57.9 °F 19.0 °F 22% 29.93 in 10.0 mi Calm Calm - N/A   Clear
4:53 AM 57.0 °F 19.9 °F 24% 29.93 in 10.0 mi SE 9.2 mph - N/A   Clear
5:53 AM 55.9 °F 21.0 °F 26% 29.94 in 10.0 mi SE 3.5 mph - N/A   Clear
6:53 AM 57.0 °F 23.0 °F 27% 29.95 in 10.0 mi SE 9.2 mph - N/A   Clear
7:53 AM 57.9 °F 24.1 °F 27% 29.99 in 10.0 mi SE 6.9 mph - N/A   Clear
8:53 AM 64.9 °F 24.1 °F 21% 30.01 in 10.0 mi ESE 9.2 mph - N/A   Clear
9:53 AM 70.0 °F 21.9 °F 16% 30.00 in 10.0 mi East 8.1 mph - N/A   Clear
10:53 AM 73.0 °F 19.9 °F 14% 29.99 in 10.0 mi East 6.9 mph - N/A   Clear
11:53 AM 75.0 °F 19.0 °F 12% 29.97 in 10.0 mi Calm Calm - N/A   Clear
12:53 PM 78.1 °F 19.9 °F 11% 29.94 in 10.0 mi Variable 4.6 mph - N/A   Clear
1:53 PM 79.0 °F 19.9 °F 11% 29.93 in 10.0 mi WNW 6.9 mph - N/A   Clear
2:53 PM 81.0 °F 19.9 °F 10% 29.92 in 10.0 mi North 6.9 mph - N/A   Clear
3:53 PM 81.0 °F 19.9 °F 10% 29.91 in 10.0 mi Variable 5.8 mph - N/A   Clear
4:53 PM 80.1 °F 19.9 °F 11% 29.90 in 10.0 mi WNW 8.1 mph - N/A   Clear
5:53 PM 79.0 °F 19.0 °F 11% 29.91 in 10.0 mi WSW 8.1 mph - N/A   Clear
6:53 PM 75.0 °F 18.0 °F 12% 29.92 in 10.0 mi Calm Calm - N/A   Clear
7:53 PM 72.0 °F 37.0 °F 28% 29.94 in 10.0 mi SE 17.3 mph - N/A   Clear
8:53 PM 69.1 °F 39.9 °F 35% 29.95 in 10.0 mi SE 15.0 mph - N/A   Clear
9:53 PM 66.0 °F 39.0 °F 37% 29.97 in 10.0 mi SE 5.8 mph - N/A   Clear
10:53 PM 64.9 °F 39.0 °F 39% 29.99 in 10.0 mi SSE 8.1 mph - N/A   Clear
11:53 PM 61.0 °F 37.0 °F 41% 30.00 in 10.0 mi Calm Calm - N/A   Clear